Year,Month,Day,Hour,Minute,Value (Times are PST for windspeed in km/hr)
2015,08,30,00,00,0.00
2015,08,30,00,01,0.00
2015,08,30,00,02,0.80
2015,08,30,00,03,2.90
2015,08,30,00,04,3.70
2015,08,30,00,05,2.30
2015,08,30,00,06,1.30
2015,08,30,00,07,1.50
2015,08,30,00,08,1.60
2015,08,30,00,09,0.30
2015,08,30,00,10,0.00
2015,08,30,00,11,0.00
2015,08,30,00,12,0.00
2015,08,30,00,13,0.00
2015,08,30,00,14,0.00
2015,08,30,00,15,0.00
2015,08,30,00,16,0.00
2015,08,30,00,17,0.00
2015,08,30,00,18,0.00
2015,08,30,00,19,0.00
2015,08,30,00,20,0.00
2015,08,30,00,21,0.00
2015,08,30,00,22,0.60
2015,08,30,00,23,1.20
2015,08,30,00,24,0.10
2015,08,30,00,25,0.00
2015,08,30,00,26,0.00
2015,08,30,00,27,0.00
2015,08,30,00,28,0.00
2015,08,30,00,29,0.00
2015,08,30,00,30,0.00
2015,08,30,00,31,0.00
2015,08,30,00,32,0.00
2015,08,30,00,33,0.00
2015,08,30,00,34,0.00
2015,08,30,00,35,0.90
2015,08,30,00,36,1.30
2015,08,30,00,37,1.00
2015,08,30,00,38,0.60
2015,08,30,00,39,0.00
2015,08,30,00,40,0.00
2015,08,30,00,41,0.00
2015,08,30,00,42,0.00
2015,08,30,00,43,0.00
2015,08,30,00,44,0.00
2015,08,30,00,45,0.00
2015,08,30,00,46,0.00
2015,08,30,00,47,0.00
2015,08,30,00,48,0.00
2015,08,30,00,49,0.00
2015,08,30,00,50,0.00
2015,08,30,00,51,0.00
2015,08,30,00,52,0.00
2015,08,30,00,53,0.00
2015,08,30,00,54,0.00
2015,08,30,00,55,0.30
2015,08,30,00,56,1.50
2015,08,30,00,57,1.70
2015,08,30,00,58,2.60
2015,08,30,00,59,2.00
2015,08,30,01,00,3.00
2015,08,30,01,01,1.30
2015,08,30,01,02,2.90
2015,08,30,01,03,3.20
2015,08,30,01,04,2.50
2015,08,30,01,05,2.80
2015,08,30,01,06,0.30
2015,08,30,01,07,3.50
2015,08,30,01,08,4.40
2015,08,30,01,09,3.30
2015,08,30,01,10,4.10
2015,08,30,01,11,3.30
2015,08,30,01,12,3.80
2015,08,30,01,13,1.20
2015,08,30,01,14,1.10
2015,08,30,01,15,0.40
2015,08,30,01,16,0.00
2015,08,30,01,17,0.00
2015,08,30,01,18,0.00
2015,08,30,01,19,0.10
2015,08,30,01,20,1.20
2015,08,30,01,21,0.10
2015,08,30,01,22,0.00
2015,08,30,01,23,0.10
2015,08,30,01,24,0.00
2015,08,30,01,25,0.00
2015,08,30,01,26,0.00
2015,08,30,01,27,0.90
2015,08,30,01,28,2.70
2015,08,30,01,29,1.90
2015,08,30,01,30,1.00
2015,08,30,01,31,1.80
2015,08,30,01,32,1.10
2015,08,30,01,33,0.00
2015,08,30,01,34,0.00
2015,08,30,01,35,0.90
2015,08,30,01,36,2.20
2015,08,30,01,37,2.70
2015,08,30,01,38,3.70
2015,08,30,01,39,3.10
2015,08,30,01,40,1.90
2015,08,30,01,41,0.70
2015,08,30,01,42,0.00
2015,08,30,01,43,0.00
2015,08,30,01,44,0.00
2015,08,30,01,45,0.40
2015,08,30,01,46,1.10
2015,08,30,01,47,1.60
2015,08,30,01,48,2.40
2015,08,30,01,49,2.80
2015,08,30,01,50,2.10
2015,08,30,01,51,2.50
2015,08,30,01,52,2.80
2015,08,30,01,53,1.80
2015,08,30,01,54,2.10
2015,08,30,01,55,2.80
2015,08,30,01,56,2.40
2015,08,30,01,57,2.40
2015,08,30,01,58,1.10
2015,08,30,01,59,0.00
2015,08,30,02,00,1.60
2015,08,30,02,01,1.00
2015,08,30,02,02,0.00
2015,08,30,02,03,0.00
2015,08,30,02,04,0.00
2015,08,30,02,05,0.70
2015,08,30,02,06,4.20
2015,08,30,02,07,3.20
2015,08,30,02,08,2.40
2015,08,30,02,09,1.20
2015,08,30,02,10,0.90
2015,08,30,02,11,1.10
2015,08,30,02,12,1.30
2015,08,30,02,13,1.00
2015,08,30,02,14,2.30
2015,08,30,02,15,0.10
2015,08,30,02,16,0.90
2015,08,30,02,17,0.50
2015,08,30,02,18,1.40
2015,08,30,02,19,0.80
2015,08,30,02,20,0.10
2015,08,30,02,21,0.20
2015,08,30,02,22,1.70
2015,08,30,02,23,0.30
2015,08,30,02,24,0.00
2015,08,30,02,25,0.00
2015,08,30,02,26,0.00
2015,08,30,02,27,0.00
2015,08,30,02,28,0.00
2015,08,30,02,29,0.00
2015,08,30,02,30,0.00
2015,08,30,02,31,0.00
2015,08,30,02,32,0.00
2015,08,30,02,33,0.00
2015,08,30,02,34,0.00
2015,08,30,02,35,0.00
2015,08,30,02,36,0.00
2015,08,30,02,37,0.00
2015,08,30,02,38,0.00
2015,08,30,02,39,0.00
2015,08,30,02,40,0.30
2015,08,30,02,41,2.70
2015,08,30,02,42,3.20
2015,08,30,02,43,3.50
2015,08,30,02,44,3.20
2015,08,30,02,45,2.50
2015,08,30,02,46,2.10
2015,08,30,02,47,2.60
2015,08,30,02,48,1.60
2015,08,30,02,49,2.60
2015,08,30,02,50,3.10
2015,08,30,02,51,2.50
2015,08,30,02,52,1.60
2015,08,30,02,53,2.60
2015,08,30,02,54,2.30
2015,08,30,02,55,1.30
2015,08,30,02,56,2.70
2015,08,30,02,57,2.20
2015,08,30,02,58,1.20
2015,08,30,02,59,1.40
2015,08,30,03,00,1.80
2015,08,30,03,01,1.80
2015,08,30,03,02,1.40
2015,08,30,03,03,0.70
2015,08,30,03,04,1.40
2015,08,30,03,05,3.70
2015,08,30,03,06,3.10
2015,08,30,03,07,5.20
2015,08,30,03,08,3.90
2015,08,30,03,09,5.30
2015,08,30,03,10,5.90
2015,08,30,03,11,4.20
2015,08,30,03,12,4.80
2015,08,30,03,13,5.40
2015,08,30,03,14,4.10
2015,08,30,03,15,2.80
2015,08,30,03,16,5.10
2015,08,30,03,17,4.60
2015,08,30,03,18,4.70
2015,08,30,03,19,4.50
2015,08,30,03,20,3.00
2015,08,30,03,21,4.00
2015,08,30,03,22,3.60
2015,08,30,03,23,4.30
2015,08,30,03,24,2.30
2015,08,30,03,25,4.40
2015,08,30,03,26,2.40
2015,08,30,03,27,2.70
2015,08,30,03,28,3.40
2015,08,30,03,29,5.20
2015,08,30,03,30,3.60
2015,08,30,03,31,4.20
2015,08,30,03,32,3.70
2015,08,30,03,33,5.50
2015,08,30,03,34,4.40
2015,08,30,03,35,2.90
2015,08,30,03,36,4.80
2015,08,30,03,37,4.00
2015,08,30,03,38,2.00
2015,08,30,03,39,3.00
2015,08,30,03,40,3.80
2015,08,30,03,41,1.50
2015,08,30,03,42,2.20
2015,08,30,03,43,1.50
2015,08,30,03,44,2.20
2015,08,30,03,45,2.40
2015,08,30,03,46,2.90
2015,08,30,03,47,3.80
2015,08,30,03,48,2.90
2015,08,30,03,49,2.50
2015,08,30,03,50,2.90
2015,08,30,03,51,2.90
2015,08,30,03,52,1.40
2015,08,30,03,53,1.10
2015,08,30,03,54,2.40
2015,08,30,03,55,2.30
2015,08,30,03,56,1.80
2015,08,30,03,57,2.10
2015,08,30,03,58,1.70
2015,08,30,03,59,1.60
2015,08,30,04,00,1.60
2015,08,30,04,01,1.60
2015,08,30,04,02,3.40
2015,08,30,04,03,1.90
2015,08,30,04,04,2.70
2015,08,30,04,05,1.40
2015,08,30,04,06,2.70
2015,08,30,04,07,2.50
2015,08,30,04,08,4.20
2015,08,30,04,09,4.00
2015,08,30,04,10,3.20
2015,08,30,04,11,3.20
2015,08,30,04,12,4.30
2015,08,30,04,13,3.70
2015,08,30,04,14,3.90
2015,08,30,04,15,5.30
2015,08,30,04,16,3.10
2015,08,30,04,17,3.60
2015,08,30,04,18,4.10
2015,08,30,04,19,3.10
2015,08,30,04,20,4.30
2015,08,30,04,21,3.20
2015,08,30,04,22,2.80
2015,08,30,04,23,1.50
2015,08,30,04,24,1.50
2015,08,30,04,25,1.40
2015,08,30,04,26,2.10
2015,08,30,04,27,1.80
2015,08,30,04,28,2.90
2015,08,30,04,29,2.10
2015,08,30,04,30,2.60
2015,08,30,04,31,3.20
2015,08,30,04,32,0.60
2015,08,30,04,33,0.00
2015,08,30,04,34,0.00
2015,08,30,04,35,0.40
2015,08,30,04,36,1.80
2015,08,30,04,37,1.90
2015,08,30,04,38,1.50
2015,08,30,04,39,2.60
2015,08,30,04,40,2.10
2015,08,30,04,41,2.70
2015,08,30,04,42,2.70
2015,08,30,04,43,4.90
2015,08,30,04,44,4.10
2015,08,30,04,45,2.90
2015,08,30,04,46,4.30
2015,08,30,04,47,4.70
2015,08,30,04,48,3.20
2015,08,30,04,49,2.90
2015,08,30,04,50,2.50
2015,08,30,04,51,3.50
2015,08,30,04,52,4.00
2015,08,30,04,53,4.90
2015,08,30,04,54,4.70
2015,08,30,04,55,5.60
2015,08,30,04,56,3.70
2015,08,30,04,57,3.20
2015,08,30,04,58,3.50
2015,08,30,04,59,4.60
2015,08,30,05,00,3.60
2015,08,30,05,01,3.00
2015,08,30,05,02,3.40
2015,08,30,05,03,3.10
2015,08,30,05,04,3.60
2015,08,30,05,05,4.70
2015,08,30,05,06,2.90
2015,08,30,05,07,2.20
2015,08,30,05,08,2.60
2015,08,30,05,09,2.60
2015,08,30,05,10,0.30
2015,08,30,05,11,0.00
2015,08,30,05,12,2.00
2015,08,30,05,13,2.70
2015,08,30,05,14,2.20
2015,08,30,05,15,2.10
2015,08,30,05,16,2.10
2015,08,30,05,17,3.20
2015,08,30,05,18,3.00
2015,08,30,05,19,1.70
2015,08,30,05,20,1.80
2015,08,30,05,21,0.40
2015,08,30,05,22,0.30
2015,08,30,05,23,0.10
2015,08,30,05,24,1.30
2015,08,30,05,25,1.60
2015,08,30,05,26,1.90
2015,08,30,05,27,2.10
2015,08,30,05,28,2.90
2015,08,30,05,29,1.60
2015,08,30,05,30,2.40
2015,08,30,05,31,1.80
2015,08,30,05,32,0.80
2015,08,30,05,33,1.90
2015,08,30,05,34,1.80
2015,08,30,05,35,2.70
2015,08,30,05,36,2.10
2015,08,30,05,37,1.30
2015,08,30,05,38,1.30
2015,08,30,05,39,1.80
2015,08,30,05,40,3.00
2015,08,30,05,41,3.00
2015,08,30,05,42,4.70
2015,08,30,05,43,4.40
2015,08,30,05,44,4.00
2015,08,30,05,45,4.30
2015,08,30,05,46,2.40
2015,08,30,05,47,3.20
2015,08,30,05,48,2.60
2015,08,30,05,49,2.70
2015,08,30,05,50,3.40
2015,08,30,05,51,3.50
2015,08,30,05,52,3.40
2015,08,30,05,53,4.00
2015,08,30,05,54,2.10
2015,08,30,05,55,0.60
2015,08,30,05,56,1.90
2015,08,30,05,57,1.30
2015,08,30,05,58,0.60
2015,08,30,05,59,1.80
2015,08,30,06,00,2.90
2015,08,30,06,01,2.60
2015,08,30,06,02,2.40
2015,08,30,06,03,2.40
2015,08,30,06,04,2.50
2015,08,30,06,05,2.80
2015,08,30,06,06,3.20
2015,08,30,06,07,4.60
2015,08,30,06,08,3.90
2015,08,30,06,09,3.50
2015,08,30,06,10,3.50
2015,08,30,06,11,3.80
2015,08,30,06,12,4.00
2015,08,30,06,13,2.40
2015,08,30,06,14,2.80
2015,08,30,06,15,1.60
2015,08,30,06,16,2.40
2015,08,30,06,17,2.20
2015,08,30,06,18,0.90
2015,08,30,06,19,0.00
2015,08,30,06,20,0.00
2015,08,30,06,21,0.00
2015,08,30,06,22,0.00
2015,08,30,06,23,0.00
2015,08,30,06,24,0.00
2015,08,30,06,25,0.60
2015,08,30,06,26,0.50
2015,08,30,06,27,0.80
2015,08,30,06,28,1.80
2015,08,30,06,29,2.00
2015,08,30,06,30,1.40
2015,08,30,06,31,1.40
2015,08,30,06,32,2.00
2015,08,30,06,33,1.80
2015,08,30,06,34,2.40
2015,08,30,06,35,1.50
2015,08,30,06,36,2.10
2015,08,30,06,37,1.00
2015,08,30,06,38,1.80
2015,08,30,06,39,2.90
2015,08,30,06,40,1.20
2015,08,30,06,41,1.90
2015,08,30,06,42,1.70
2015,08,30,06,43,2.10
2015,08,30,06,44,0.70
2015,08,30,06,45,1.10
2015,08,30,06,46,1.70
2015,08,30,06,47,1.40
2015,08,30,06,48,1.30
2015,08,30,06,49,1.30
2015,08,30,06,50,1.20
2015,08,30,06,51,1.90
2015,08,30,06,52,2.90
2015,08,30,06,53,2.20
2015,08,30,06,54,2.70
2015,08,30,06,55,2.30
2015,08,30,06,56,2.90
2015,08,30,06,57,3.40
2015,08,30,06,58,2.00
2015,08,30,06,59,2.00
2015,08,30,07,00,1.50
2015,08,30,07,01,1.30
2015,08,30,07,02,0.10
2015,08,30,07,03,0.00
2015,08,30,07,04,0.00
2015,08,30,07,05,0.00
2015,08,30,07,06,0.00
2015,08,30,07,07,0.00
2015,08,30,07,08,0.00
2015,08,30,07,09,0.00
2015,08,30,07,10,0.00
2015,08,30,07,11,0.00
2015,08,30,07,12,0.00
2015,08,30,07,13,0.00
2015,08,30,07,14,0.00
2015,08,30,07,15,0.00
2015,08,30,07,16,0.00
2015,08,30,07,17,0.00
2015,08,30,07,18,0.20
2015,08,30,07,19,0.40
2015,08,30,07,20,1.20
2015,08,30,07,21,0.00
2015,08,30,07,22,1.00
2015,08,30,07,23,2.20
2015,08,30,07,24,2.20
2015,08,30,07,25,2.80
2015,08,30,07,26,3.70
2015,08,30,07,27,3.70
2015,08,30,07,28,3.40
2015,08,30,07,29,4.00
2015,08,30,07,30,3.90
2015,08,30,07,31,2.80
2015,08,30,07,32,2.10
2015,08,30,07,33,2.20
2015,08,30,07,34,2.40
2015,08,30,07,35,2.00
2015,08,30,07,36,2.30
2015,08,30,07,37,0.50
2015,08,30,07,38,0.00
2015,08,30,07,39,1.80
2015,08,30,07,40,2.90
2015,08,30,07,41,3.20
2015,08,30,07,42,2.80
2015,08,30,07,43,2.60
2015,08,30,07,44,2.60
2015,08,30,07,45,1.40
2015,08,30,07,46,0.10
2015,08,30,07,47,0.00
2015,08,30,07,48,0.00
2015,08,30,07,49,0.00
2015,08,30,07,50,0.70
2015,08,30,07,51,1.40
2015,08,30,07,52,1.40
2015,08,30,07,53,1.90
2015,08,30,07,54,1.60
2015,08,30,07,55,3.40
2015,08,30,07,56,2.70
2015,08,30,07,57,2.70
2015,08,30,07,58,2.20
2015,08,30,07,59,2.10
2015,08,30,08,00,2.00
2015,08,30,08,01,2.30
2015,08,30,08,02,1.70
2015,08,30,08,03,1.80
2015,08,30,08,04,0.70
2015,08,30,08,05,0.40
2015,08,30,08,06,0.00
2015,08,30,08,07,0.00
2015,08,30,08,08,0.00
2015,08,30,08,09,0.00
2015,08,30,08,10,0.00
2015,08,30,08,11,0.00
2015,08,30,08,12,0.00
2015,08,30,08,13,0.00
2015,08,30,08,14,1.80
2015,08,30,08,15,2.50
2015,08,30,08,16,1.20
2015,08,30,08,17,1.90
2015,08,30,08,18,2.10
2015,08,30,08,19,5.20
2015,08,30,08,20,4.80
2015,08,30,08,21,4.10
2015,08,30,08,22,4.40
2015,08,30,08,23,4.60
2015,08,30,08,24,4.50
2015,08,30,08,25,3.90
2015,08,30,08,26,5.40
2015,08,30,08,27,5.70
2015,08,30,08,28,4.80
2015,08,30,08,29,0.20
2015,08,30,08,30,0.90
2015,08,30,08,31,3.50
2015,08,30,08,32,2.20
2015,08,30,08,33,3.80
2015,08,30,08,34,3.80
2015,08,30,08,35,4.60
2015,08,30,08,36,2.70
2015,08,30,08,37,4.30
2015,08,30,08,38,3.40
2015,08,30,08,39,1.60
2015,08,30,08,40,1.70
2015,08,30,08,41,3.30
2015,08,30,08,42,2.30
2015,08,30,08,43,2.90
2015,08,30,08,44,2.30
2015,08,30,08,45,4.40
2015,08,30,08,46,5.10
2015,08,30,08,47,2.30
2015,08,30,08,48,3.40
2015,08,30,08,49,6.00
2015,08,30,08,50,6.10
2015,08,30,08,51,6.40
2015,08,30,08,52,7.40
2015,08,30,08,53,6.90
2015,08,30,08,54,6.40
2015,08,30,08,55,7.70
2015,08,30,08,56,5.30
2015,08,30,08,57,4.50
2015,08,30,08,58,2.80
2015,08,30,08,59,3.70
2015,08,30,09,00,3.40
2015,08,30,09,01,1.30
2015,08,30,09,02,3.30
2015,08,30,09,03,3.80
2015,08,30,09,04,6.00
2015,08,30,09,05,6.80
2015,08,30,09,06,6.40
2015,08,30,09,07,5.10
2015,08,30,09,08,5.90
2015,08,30,09,09,4.80
2015,08,30,09,10,5.10
2015,08,30,09,11,3.60
2015,08,30,09,12,2.70
2015,08,30,09,13,0.40
2015,08,30,09,14,2.70
2015,08,30,09,15,3.80
2015,08,30,09,16,5.90
2015,08,30,09,17,7.20
2015,08,30,09,18,5.90
2015,08,30,09,19,6.30
2015,08,30,09,20,4.60
2015,08,30,09,21,3.70
2015,08,30,09,22,3.90
2015,08,30,09,23,5.80
2015,08,30,09,24,5.10
2015,08,30,09,25,6.60
2015,08,30,09,26,7.50
2015,08,30,09,27,5.40
2015,08,30,09,28,5.00
2015,08,30,09,29,3.40
2015,08,30,09,30,4.60
2015,08,30,09,31,3.10
2015,08,30,09,32,1.90
2015,08,30,09,33,3.80
2015,08,30,09,34,1.90
2015,08,30,09,35,3.40
2015,08,30,09,36,2.70
2015,08,30,09,37,4.00
2015,08,30,09,38,3.20
2015,08,30,09,39,2.30
2015,08,30,09,40,2.90
2015,08,30,09,41,2.80
2015,08,30,09,42,2.60
2015,08,30,09,43,3.30
2015,08,30,09,44,4.00
2015,08,30,09,45,6.40
2015,08,30,09,46,5.00
2015,08,30,09,47,4.70
2015,08,30,09,48,5.20
2015,08,30,09,49,5.00
2015,08,30,09,50,3.20
2015,08,30,09,51,5.60
2015,08,30,09,52,4.80
2015,08,30,09,53,6.80
2015,08,30,09,54,4.80
2015,08,30,09,55,3.20
2015,08,30,09,56,2.80
2015,08,30,09,57,3.90
2015,08,30,09,58,5.80
2015,08,30,09,59,5.20
2015,08,30,10,00,5.90
2015,08,30,10,01,9.60
2015,08,30,10,02,8.60
2015,08,30,10,03,7.30
2015,08,30,10,04,11.00
2015,08,30,10,05,16.00
2015,08,30,10,06,7.30
2015,08,30,10,07,9.20
2015,08,30,10,08,6.90
2015,08,30,10,09,6.60
2015,08,30,10,10,6.10
2015,08,30,10,11,7.50
2015,08,30,10,12,6.40
2015,08,30,10,13,8.20
2015,08,30,10,14,7.50
2015,08,30,10,15,7.60
2015,08,30,10,16,6.20
2015,08,30,10,17,6.20
2015,08,30,10,18,4.70
2015,08,30,10,19,4.50
2015,08,30,10,20,7.10
2015,08,30,10,21,6.70
2015,08,30,10,22,7.70
2015,08,30,10,23,6.00
2015,08,30,10,24,4.10
2015,08,30,10,25,5.70
2015,08,30,10,26,5.40
2015,08,30,10,27,6.70
2015,08,30,10,28,4.60
2015,08,30,10,29,4.50
2015,08,30,10,30,3.20
2015,08,30,10,31,3.60
2015,08,30,10,32,5.20
2015,08,30,10,33,3.30
2015,08,30,10,34,5.90
2015,08,30,10,35,6.30
2015,08,30,10,36,4.90
2015,08,30,10,37,5.40
2015,08,30,10,38,3.30
2015,08,30,10,39,8.50
2015,08,30,10,40,5.90
2015,08,30,10,41,6.10
2015,08,30,10,42,5.30
2015,08,30,10,43,8.60
2015,08,30,10,44,7.60
2015,08,30,10,45,9.40
2015,08,30,10,46,9.00
2015,08,30,10,47,5.90
2015,08,30,10,48,8.70
2015,08,30,10,49,6.70
2015,08,30,10,50,6.70
2015,08,30,10,51,6.80
2015,08,30,10,52,5.40
2015,08,30,10,53,16.80
2015,08,30,10,54,10.70
2015,08,30,10,55,8.10
2015,08,30,10,56,7.90
2015,08,30,10,57,7.90
2015,08,30,10,58,12.90
2015,08,30,10,59,4.50
2015,08,30,11,00,8.50
2015,08,30,11,01,11.20
2015,08,30,11,02,8.00
2015,08,30,11,03,8.20
2015,08,30,11,04,8.20
2015,08,30,11,05,8.80
2015,08,30,11,06,8.30
2015,08,30,11,07,7.00
2015,08,30,11,08,9.70
2015,08,30,11,09,8.10
2015,08,30,11,10,9.70
2015,08,30,11,11,9.30
2015,08,30,11,12,8.60
2015,08,30,11,13,8.60
2015,08,30,11,14,9.60
2015,08,30,11,15,8.10
2015,08,30,11,16,8.20
2015,08,30,11,17,10.90
2015,08,30,11,18,12.80
2015,08,30,11,19,7.20
2015,08,30,11,20,6.80
2015,08,30,11,21,8.70
2015,08,30,11,22,11.60
2015,08,30,11,23,10.80
2015,08,30,11,24,7.70
2015,08,30,11,25,9.20
2015,08,30,11,26,11.00
2015,08,30,11,27,9.30
2015,08,30,11,28,12.10
2015,08,30,11,29,8.20
2015,08,30,11,30,4.90
2015,08,30,11,31,9.10
2015,08,30,11,32,11.30
2015,08,30,11,33,12.20
2015,08,30,11,34,10.10
2015,08,30,11,35,10.30
2015,08,30,11,36,9.70
2015,08,30,11,37,10.50
2015,08,30,11,38,11.00
2015,08,30,11,39,13.70
2015,08,30,11,40,12.50
2015,08,30,11,41,12.70
2015,08,30,11,42,11.20
2015,08,30,11,43,12.30
2015,08,30,11,44,6.10
2015,08,30,11,45,11.70
2015,08,30,11,46,11.60
2015,08,30,11,47,8.90
2015,08,30,11,48,13.20
2015,08,30,11,49,9.40
2015,08,30,11,50,7.80
2015,08,30,11,51,11.00
2015,08,30,11,52,9.70
2015,08,30,11,53,11.60
2015,08,30,11,54,10.80
2015,08,30,11,55,9.90
2015,08,30,11,56,9.50
2015,08,30,11,57,8.00
2015,08,30,11,58,9.50
2015,08,30,11,59,12.00
2015,08,30,12,00,9.00
2015,08,30,12,01,7.70
2015,08,30,12,02,12.00
2015,08,30,12,03,10.10
2015,08,30,12,04,10.80
2015,08,30,12,05,13.20
2015,08,30,12,06,9.90
2015,08,30,12,07,11.00
2015,08,30,12,08,11.00
2015,08,30,12,09,9.30
2015,08,30,12,10,11.90
2015,08,30,12,11,8.80
2015,08,30,12,12,11.50
2015,08,30,12,13,9.60
2015,08,30,12,14,8.00
2015,08,30,12,15,10.30
2015,08,30,12,16,12.20
2015,08,30,12,17,14.50
2015,08,30,12,18,13.90
2015,08,30,12,19,10.60
2015,08,30,12,20,7.50
2015,08,30,12,21,9.50
2015,08,30,12,22,8.80
2015,08,30,12,23,7.20
2015,08,30,12,24,9.40
2015,08,30,12,25,15.20
2015,08,30,12,26,9.90
2015,08,30,12,27,10.40
2015,08,30,12,28,14.00
2015,08,30,12,29,10.90
2015,08,30,12,30,13.30
2015,08,30,12,31,9.30
2015,08,30,12,32,6.40
2015,08,30,12,33,12.80
2015,08,30,12,34,9.30
2015,08,30,12,35,7.90
2015,08,30,12,36,7.80
2015,08,30,12,37,14.20
2015,08,30,12,38,9.70
2015,08,30,12,39,13.80
2015,08,30,12,40,13.90
2015,08,30,12,41,8.40
2015,08,30,12,42,12.90
2015,08,30,12,43,13.00
2015,08,30,12,44,13.90
2015,08,30,12,45,9.60
2015,08,30,12,46,9.00
2015,08,30,12,47,13.40
2015,08,30,12,48,16.00
2015,08,30,12,49,13.60
2015,08,30,12,50,11.50
2015,08,30,12,51,13.80
2015,08,30,12,52,11.00
2015,08,30,12,53,9.40
2015,08,30,12,54,6.60
2015,08,30,12,55,8.00
2015,08,30,12,56,14.50
2015,08,30,12,57,10.60
2015,08,30,12,58,8.30
2015,08,30,12,59,8.10
2015,08,30,13,00,10.80
2015,08,30,13,01,11.50
2015,08,30,13,02,9.90
2015,08,30,13,03,9.70
2015,08,30,13,04,10.60
2015,08,30,13,05,12.30
2015,08,30,13,06,13.90
2015,08,30,13,07,8.70
2015,08,30,13,08,10.00
2015,08,30,13,09,13.30
2015,08,30,13,10,8.40
2015,08,30,13,11,11.30
2015,08,30,13,12,7.20
2015,08,30,13,13,7.30
2015,08,30,13,14,8.70
2015,08,30,13,15,10.70
2015,08,30,13,16,11.40
2015,08,30,13,17,11.40
2015,08,30,13,18,12.10
2015,08,30,13,19,8.60
2015,08,30,13,20,10.20
2015,08,30,13,21,10.70
2015,08,30,13,22,10.30
2015,08,30,13,23,13.10
2015,08,30,13,24,10.50
2015,08,30,13,25,11.20
2015,08,30,13,26,10.50
2015,08,30,13,27,11.10
2015,08,30,13,28,13.10
2015,08,30,13,29,9.40
2015,08,30,13,30,12.30
2015,08,30,13,31,14.80
2015,08,30,13,32,14.10
2015,08,30,13,33,9.30
2015,08,30,13,34,11.40
2015,08,30,13,35,16.80
2015,08,30,13,36,13.60
2015,08,30,13,37,13.50
2015,08,30,13,38,12.70
2015,08,30,13,39,10.30
2015,08,30,13,40,15.40
2015,08,30,13,41,10.60
2015,08,30,13,42,7.40
2015,08,30,13,43,14.70
2015,08,30,13,44,11.80
2015,08,30,13,45,11.30
2015,08,30,13,46,10.80
2015,08,30,13,47,13.90
2015,08,30,13,48,13.60
2015,08,30,13,49,12.20
2015,08,30,13,50,10.30
2015,08,30,13,51,10.80
2015,08,30,13,52,12.90
2015,08,30,13,53,13.10
2015,08,30,13,54,11.50
2015,08,30,13,55,10.30
2015,08,30,13,56,12.20
2015,08,30,13,57,7.50
2015,08,30,13,58,12.30
2015,08,30,13,59,12.30
2015,08,30,14,00,11.60
2015,08,30,14,01,17.50
2015,08,30,14,02,10.70
2015,08,30,14,03,15.20
2015,08,30,14,04,18.20
2015,08,30,14,05,11.70
2015,08,30,14,06,15.80
2015,08,30,14,07,12.50
2015,08,30,14,08,11.10
2015,08,30,14,09,15.00
2015,08,30,14,10,10.80
2015,08,30,14,11,13.10
2015,08,30,14,12,12.50
2015,08,30,14,13,13.30
2015,08,30,14,14,10.40
2015,08,30,14,15,12.80
2015,08,30,14,16,11.60
2015,08,30,14,17,11.40
2015,08,30,14,18,12.20
2015,08,30,14,19,15.20
2015,08,30,14,20,14.80
2015,08,30,14,21,10.40
2015,08,30,14,22,9.10
2015,08,30,14,23,10.70
2015,08,30,14,24,8.00
2015,08,30,14,25,11.90
2015,08,30,14,26,11.90
2015,08,30,14,27,13.00
2015,08,30,14,28,8.00
2015,08,30,14,29,12.50
2015,08,30,14,30,10.00
2015,08,30,14,31,7.60
2015,08,30,14,32,9.80
2015,08,30,14,33,12.20
2015,08,30,14,34,9.30
2015,08,30,14,35,11.40
2015,08,30,14,36,13.70
2015,08,30,14,37,11.70
2015,08,30,14,38,8.60
2015,08,30,14,39,10.10
2015,08,30,14,40,8.90
2015,08,30,14,41,7.10
2015,08,30,14,42,6.60
2015,08,30,14,43,7.30
2015,08,30,14,44,8.80
2015,08,30,14,45,7.40
2015,08,30,14,46,10.70
2015,08,30,14,47,11.80
2015,08,30,14,48,11.90
2015,08,30,14,49,13.30
2015,08,30,14,50,12.00
2015,08,30,14,51,12.30
2015,08,30,14,52,14.20
2015,08,30,14,53,12.30
2015,08,30,14,54,12.30
2015,08,30,14,55,15.20
2015,08,30,14,56,15.00
2015,08,30,14,57,14.70
2015,08,30,14,58,10.50
2015,08,30,14,59,9.40
2015,08,30,15,00,10.60
2015,08,30,15,01,8.90
2015,08,30,15,02,12.30
2015,08,30,15,03,9.40
2015,08,30,15,04,10.30
2015,08,30,15,05,7.70
2015,08,30,15,06,12.10
2015,08,30,15,07,9.50
2015,08,30,15,08,12.40
2015,08,30,15,09,11.10
2015,08,30,15,10,9.20
2015,08,30,15,11,11.70
2015,08,30,15,12,8.30
2015,08,30,15,13,13.00
2015,08,30,15,14,13.60
2015,08,30,15,15,7.80
2015,08,30,15,16,12.60
2015,08,30,15,17,14.40
2015,08,30,15,18,12.50
2015,08,30,15,19,11.30
2015,08,30,15,20,12.10
2015,08,30,15,21,7.40
2015,08,30,15,22,10.60
2015,08,30,15,23,6.50
2015,08,30,15,24,8.50
2015,08,30,15,25,9.40
2015,08,30,15,26,13.40
2015,08,30,15,27,10.50
2015,08,30,15,28,11.20
2015,08,30,15,29,8.90
2015,08,30,15,30,10.90
2015,08,30,15,31,6.90
2015,08,30,15,32,5.10
2015,08,30,15,33,10.70
2015,08,30,15,34,8.00
2015,08,30,15,35,5.40
2015,08,30,15,36,10.30
2015,08,30,15,37,9.10
2015,08,30,15,38,7.70
2015,08,30,15,39,7.50
2015,08,30,15,40,10.50
2015,08,30,15,41,13.00
2015,08,30,15,42,11.60
2015,08,30,15,43,11.30
2015,08,30,15,44,13.00
2015,08,30,15,45,8.00
2015,08,30,15,46,8.10
2015,08,30,15,47,6.30
2015,08,30,15,48,8.80
2015,08,30,15,49,11.50
2015,08,30,15,50,9.90
2015,08,30,15,51,9.80
2015,08,30,15,52,10.50
2015,08,30,15,53,17.90
2015,08,30,15,54,17.70
2015,08,30,15,55,13.80
2015,08,30,15,56,10.10
2015,08,30,15,57,6.60
2015,08,30,15,58,8.20
2015,08,30,15,59,11.20
2015,08,30,16,00,11.50
2015,08,30,16,01,8.20
2015,08,30,16,02,9.60
2015,08,30,16,03,8.00
2015,08,30,16,04,13.30
2015,08,30,16,05,10.60
2015,08,30,16,06,11.20
2015,08,30,16,07,8.50
2015,08,30,16,08,11.40
2015,08,30,16,09,11.10
2015,08,30,16,10,12.30
2015,08,30,16,11,8.50
2015,08,30,16,12,6.70
2015,08,30,16,13,14.20
2015,08,30,16,14,8.80
2015,08,30,16,15,13.10
2015,08,30,16,16,15.50
2015,08,30,16,17,14.00
2015,08,30,16,18,6.80
2015,08,30,16,19,13.30
2015,08,30,16,20,14.00
2015,08,30,16,21,14.00
2015,08,30,16,22,9.80
2015,08,30,16,23,14.40
2015,08,30,16,24,11.10
2015,08,30,16,25,13.10
2015,08,30,16,26,10.30
2015,08,30,16,27,9.30
2015,08,30,16,28,7.60
2015,08,30,16,29,11.10
2015,08,30,16,30,11.20
2015,08,30,16,31,8.00
2015,08,30,16,32,8.00
2015,08,30,16,33,6.20
2015,08,30,16,34,3.70
2015,08,30,16,35,5.20
2015,08,30,16,36,5.90
2015,08,30,16,37,9.70
2015,08,30,16,38,10.40
2015,08,30,16,39,10.70
2015,08,30,16,40,13.70
2015,08,30,16,41,9.30
2015,08,30,16,42,8.10
2015,08,30,16,43,11.90
2015,08,30,16,44,9.70
2015,08,30,16,45,8.00
2015,08,30,16,46,15.20
2015,08,30,16,47,15.20
2015,08,30,16,48,8.10
2015,08,30,16,49,9.10
2015,08,30,16,50,7.70
2015,08,30,16,51,8.10
2015,08,30,16,52,9.70
2015,08,30,16,53,12.30
2015,08,30,16,54,12.60
2015,08,30,16,55,10.60
2015,08,30,16,56,9.50
2015,08,30,16,57,7.90
2015,08,30,16,58,8.10
2015,08,30,16,59,9.20
2015,08,30,17,00,12.00
2015,08,30,17,01,11.40
2015,08,30,17,02,6.60
2015,08,30,17,03,9.50
2015,08,30,17,04,11.60
2015,08,30,17,05,7.10
2015,08,30,17,06,12.90
2015,08,30,17,07,14.60
2015,08,30,17,08,10.00
2015,08,30,17,09,10.60
2015,08,30,17,10,10.20
2015,08,30,17,11,10.50
2015,08,30,17,12,9.30
2015,08,30,17,13,9.90
2015,08,30,17,14,11.40
2015,08,30,17,15,8.90
2015,08,30,17,16,9.20
2015,08,30,17,17,6.50
2015,08,30,17,18,9.50
2015,08,30,17,19,5.50
2015,08,30,17,20,7.90
2015,08,30,17,21,8.60
2015,08,30,17,22,7.70
2015,08,30,17,23,4.00
2015,08,30,17,24,6.30
2015,08,30,17,25,10.60
2015,08,30,17,26,9.40
2015,08,30,17,27,10.00
2015,08,30,17,28,8.70
2015,08,30,17,29,9.20
2015,08,30,17,30,7.30
2015,08,30,17,31,9.70
2015,08,30,17,32,8.20
2015,08,30,17,33,9.30
2015,08,30,17,34,9.30
2015,08,30,17,35,10.10
2015,08,30,17,36,7.30
2015,08,30,17,37,7.90
2015,08,30,17,38,6.60
2015,08,30,17,39,3.30
2015,08,30,17,40,1.50
2015,08,30,17,41,6.40
2015,08,30,17,42,5.70
2015,08,30,17,43,2.60
2015,08,30,17,44,2.80
2015,08,30,17,45,8.10
2015,08,30,17,46,7.40
2015,08,30,17,47,6.80
2015,08,30,17,48,6.20
2015,08,30,17,49,8.50
2015,08,30,17,50,8.00
2015,08,30,17,51,7.30
2015,08,30,17,52,7.00
2015,08,30,17,53,7.90
2015,08,30,17,54,6.50
2015,08,30,17,55,7.30
2015,08,30,17,56,6.30